Location: Cella
(44.7333°N, 10.5667°E)
Time: 10:13:13
(UTC+00:00)

Cosmos 1777 Rocket - Pass Details

Date: 22 June 2021
Orbit: 757 x 776 km, 74.0° (Epoch: 28 July)

Event Time Altitude Azimuth Distance (km) Brightness Sun altitude
Rises 20:18:04 0° 353° (N) 3,261 8.3 -10.2°
Reaches altitude 10° 20:22:09 10° 24° (NNE) 2,332 6.9 -10.7°
Maximum altitude 20:24:12 12° 47° (NE) 2,184 6.4 -10.9°
Drops below altitude 10° 20:26:14 10° 70° (ENE) 2,329 6.3 -11.2°
Enters shadow 20:29:03 - 93° (E) 2,910 6.6 -11.5°
